Location: Splawn
(30.9202°N, 96.9858°W)
Time: 00:55:18
(UTC+00:00)

Transit 2A Rocket - Pass Details

Date: 06 March 2020
Orbit: 589 x 914 km, 66.7° (Epoch: 01 April)

Event Time Altitude Azimuth Distance (km) Brightness Sun altitude
Rises 12:39:04 0° 306° (NW) 3,343 7.8 -2.8°
Reaches altitude 10° 12:43:20 10° 274° (W) 2,480 7.0 -1.8°
Maximum altitude 12:45:09 12° 256° (WSW) 2,395 7.0 -1.5°
Drops below altitude 10° 12:47:01 10° 237° (WSW) 2,527 7.2 -1.1°
Sets 12:51:31 0° 206° (SSW) 3,507 8.2 -0.1°
